Location: Borgo
(42.3939°N, 9.2791°E)
Time: 21:23:38
(UTC+00:00)

Cosmos 1340 - Pass Details

Date: 24 January 2021
Orbit: 501 x 504 km, 81.2° (Epoch: 02 March)

Event Time Altitude Azimuth Distance (km) Brightness Sun altitude
Rises 17:45:34 0° 182° (S) 2,581 6.4 -14.6°
Reaches altitude 10° 17:47:41 10° 179° (S) 1,702 5.5 -15.0°
Maximum altitude 17:51:22 65° 97° (E) 557 2.5 -15.6°
Enters shadow 17:54:47 12° 17° (NNE) 1,585 4.9 -16.2°
